Location: *
(50.6089°N, 2.2719°E)
Time: 21:12:40
(UTC+00:00)

STARLINK-44 - Visible Passes

Search period start: 27 January 2020 00:00
Search period end: 06 February 2020 00:00
Orbit: 529 x 530 km, 53.0° (Epoch: 27 January)

Date Brightness Start Highest point End Pass type
(mag) Time Alt. Az. Time Alt. Az. Time Alt. Az.
27 Jan 3.5 05:07:35 76° NE 05:07:35 76° NE 05:11:24 10° ENE visible
27 Jan 3.8 06:42:50 11° WNW 06:46:44 61° N 06:50:43 10° E visible
28 Jan 4.0 04:56:09 57° NE 04:56:09 57° NE 04:59:27 10° ENE visible
28 Jan 3.7 06:31:23 14° WNW 06:34:49 62° N 06:38:49 10° E visible
29 Jan 4.6 04:44:41 44° ENE 04:44:41 44° ENE 04:47:33 10° ENE visible
29 Jan 3.7 06:19:55 17° WNW 06:22:55 64° N 06:26:56 10° E visible
30 Jan 5.1 04:33:13 34° ENE 04:33:13 34° ENE 04:35:40 10° ENE visible
30 Jan 3.7 06:08:28 21° WNW 06:11:03 67° N 06:15:04 10° E visible
31 Jan 5.5 04:21:46 28° ENE 04:21:46 28° ENE 04:23:48 10° ENE visible
31 Jan 3.6 05:57:00 26° WNW 05:59:12 70° NNE 06:03:13 10° E visible
01 Feb 5.9 04:10:20 23° ENE 04:10:20 23° ENE 04:11:57 10° ENE visible
01 Feb 3.6 05:45:34 32° WNW 05:47:21 74° NNE 05:51:23 10° E visible
02 Feb 6.2 03:58:56 19° ENE 03:58:56 19° ENE 04:00:08 10° ENE visible
02 Feb 3.5 05:34:10 40° WNW 05:35:31 79° NNE 05:39:33 10° ESE visible
03 Feb 6.5 03:47:34 15° ENE 03:47:34 15° ENE 03:48:20 10° ENE visible
03 Feb 3.5 05:22:48 53° WNW 05:23:43 85° NNE 05:27:44 10° ESE visible
04 Feb 6.8 03:36:15 12° E 03:36:15 12° E 03:36:33 10° E visible
04 Feb 3.4 05:11:30 71° WNW 05:11:54 88° SSW 05:15:57 10° ESE visible
04 Feb 4.9 06:47:19 10° W 06:50:43 26° SW 06:54:06 10° SSE visible
05 Feb 3.5 05:00:15 79° S 05:00:15 79° S 05:04:09 10° ESE visible
05 Feb 5.0 06:35:38 10° W 06:38:51 23° SW 06:42:03 10° SSE visible
